Location: Praha
(50.0830°N, 14.4670°E)
Time: 05:05:03
(UTC+02:00)

ISS - Pass Details

Date: 04 August 2019
Orbit: 410 x 421 km, 51.6° (Epoch: 18 August)

Event Time Altitude Azimuth Distance (km) Brightness Sun altitude
Rises 21:50:42 0° 280° (W) 2,371 1.1 -10.0°
Reaches altitude 10° 21:53:47 10° 249° (WSW) 1,500 -0.6 -10.3°
Maximum altitude 21:55:14 12° 224° (SW) 1,363 -1.1 -10.5°
Drops below altitude 10° 21:56:41 10° 198° (SSW) 1,493 -1.2 -10.7°
Enters shadow 21:57:45 - 184° (S) 1,730 -1.0 -10.8°
